DW0326 Weather Reports


time (UTC)temp
F
wind
direction
speed
knots
gust
knots
rain 1hr
in
rain 24hr
in
rain mn
in
humidity
%
barometer
mb
20260504110633 62 164 0.0 3.5 0.00 0.00 0.00 81 1011.4
20260504100332 62 169 0.9 6.1 0.00 0.00 0.00 82 1011.5
20260504081532 62 0 0.0 0.0 0.00 0.00 0.00 80 1012.4
20260504080633 62 0 0.0 0.0 0.00 0.00 0.00 80 1012.7
20260504070332 63 0 0.0 0.0 0.00 0.00 0.00 78 1013.3
20260504050632 65 194 0.0 3.5 0.00 0.00 0.00 71 1014.2
20260504045732 65 194 0.0 4.3 0.00 0.00 0.00 71 1014.2
20260504044832 66 193 0.0 2.6 0.00 0.00 0.00 71 1014.2
20260504043932 66 0 0.0 0.0 0.00 0.00 0.00 70 1014.3
20260504043032 66 193 0.0 5.2 0.00 0.00 0.00 70 1014.3
20260504040333 67 0 0.0 0.0 0.00 0.00 0.00 68 1014.3
20260504035432 67 193 0.0 5.2 0.00 0.00 0.00 68 1014.4
20260504033632 68 193 0.0 2.6 0.00 0.00 0.00 67 1014.3
20260504032733 68 194 0.9 5.2 0.00 0.00 0.00 65 1014.3
20260504031833 69 188 1.7 6.1 0.00 0.00 0.00 64 1014.3
20260504025132 70 195 0.0 4.3 0.00 0.00 0.00 62 1014.2
20260504023332 70 190 0.0 5.2 0.00 0.00 0.00 61 1014.2
20260504020632 71 177 1.7 8.7 0.00 0.00 0.00 59 1014.0
20260504015732 71 181 2.6 7.0 0.00 0.00 0.00 58 1014.0
20260504014833 72 179 1.7 10.4 0.00 0.00 0.00 58 1013.9
20260504013933 72 183 2.6 9.6 0.00 0.00 0.00 57 1013.8
20260504013032 72 179 2.6 7.8 0.00 0.00 0.00 56 1013.8
20260504012132 72 173 2.6 8.7 0.00 0.00 0.00 55 1013.8
20260504011233 73 181 1.7 10.4 0.00 0.00 0.00 55 1013.8
20260504010332 73 176 2.6 11.3 0.00 0.00 0.00 54 1013.7
20260504005432 74 182 2.6 9.6 0.00 0.00 0.00 54 1013.8
20260504004532 74 184 2.6 8.7 0.00 0.00 0.00 53 1013.8
20260504003633 74 181 3.5 9.6 0.00 0.00 0.00 52 1013.7
20260504002732 75 170 1.7 8.7 0.00 0.00 0.00 51 1013.7
20260504000932 75 199 2.6 9.6 0.00 0.00 0.00 51 1013.8
20260504000033 76 191 3.5 12.2 0.00 0.00 0.00 50 1013.8
20260503235132 76 168 1.7 6.1 0.00 0.00 0.00 48 1013.8
20260503233332 77 189 2.6 12.2 0.00 0.00 0.00 48 1013.9
20260503232433 78 184 2.6 12.2 0.00 0.00 0.00 48 1013.8
20260503231532 78 186 3.5 10.4 0.00 0.00 0.00 47 1013.8
20260503230633 78 178 2.6 12.2 0.00 0.00 0.00 47 1013.9
20260503225732 79 190 2.6 15.6 0.00 0.00 0.00 46 1013.9
20260503224832 79 170 0.9 6.1 0.00 0.00 0.00 45 1014.1
20260503223933 79 164 1.7 8.7 0.00 0.00 0.00 43 1014.3
20260503222132 80 186 0.9 6.1 0.00 0.00 0.00 44 1014.4
20260503221232 80 195 0.9 7.0 0.00 0.00 0.00 44 1014.4